Weather History for Challis, ID

Change the Weather History Date:

Saturday, October 1, 2011

  Actual Average Record
Temperature  
Mean Temperature 63 °F 50 °F  
Max Temperature 82 °F 66 °F 83 °F (1932)
Min Temperature 44 °F 34 °F 22 °F (2002)
Degree Days  
Heating Degree Days 2 15  
Month to date heating degree days 2 15  
Since 1 July heating degree days 143 364  
Cooling Degree Days 0 0  
Month to date cooling degree days 0 0  
Year to date cooling degree days 196 248  
Growing Degree Days 13 (Base 50)    
Moisture  
Dew Point 37 °F    
Average Humidity 43    
Maximum Humidity 66    
Minimum Humidity 19    
Precipitation  
Precipitation T in 0.02 in 0.53 in (1946)
Month to date precipitation T 0.02  
Year to date precipitation 5.08 8.15  
Sea Level Pressure  
Sea Level Pressure 29.89 in    
Wind  
Wind Speed 6 mph (South)    
Max Wind Speed 29 mph    
Max Gust Speed 37 mph    
Visibility 10 miles    
Events Rain    
T = Trace of Precipitation, MM = Missing Value Source: NWS Daily Summary

Daily Weather History Graph

Daily Weather History Graph

Search for Another Location

Airport:

Trip Planner

Search our weather history database for the weather conditions in past years. The results will help you decide how hot, cold, wet, or windy it might be!

Date:

Astronomy

Oct. 01, 2011 Rise Set
Actual Time 7:34 AM MDT 7:17 PM MDT
Civil Twilight 7:05 AM MDT 7:46 PM MDT
Nautical Twilight 6:31 AM MDT 8:20 PM MDT
Astronomical Twilight 5:57 AM MDT 8:54 PM MDT
Moon 12:58 PM MDT (10/1) 10:05 PM MDT (10/1)
Length of Visible Light 12h 41m
Length of Day
11h 43m
Waxing Crescent, 25% of the Moon is Illuminated
Oct 1
Waxing Crescent
Oct 3
First Quarter
Oct 11
Full
Oct 19
Last Quarter
Oct 26
New

Hourly Weather History & Observations

Time (MDT) Temp. Dew Point Humidity Pressure Visibility Wind Dir Wind Speed Gust Speed Precip Events Conditions
12:55 AM 54.0 °F 32.0 °F 43% 29.89 in 10.0 mi Calm Calm - N/A   Clear
2:55 AM 48.0 °F 32.0 °F 54% 29.88 in 10.0 mi Calm Calm - N/A   Clear
3:55 AM 48.9 °F 30.0 °F 48% 29.89 in 10.0 mi SSE 4.6 mph - N/A   Clear
4:55 AM 45.0 °F 34.0 °F 65% 29.89 in 10.0 mi Calm Calm - N/A   Clear
5:55 AM 46.9 °F 30.0 °F 52% 29.89 in 10.0 mi Calm Calm - N/A   Clear
6:55 AM 48.0 °F 28.9 °F 48% 29.91 in 10.0 mi Calm Calm - N/A   Clear
7:55 AM 45.0 °F 30.9 °F 58% 29.95 in 10.0 mi Calm Calm - N/A   Mostly Cloudy
9:55 AM 59.0 °F 35.1 °F 41% 29.93 in 10.0 mi Calm Calm - N/A   Clear
10:55 AM 62.1 °F 36.0 °F 38% 29.93 in 10.0 mi NNE 3.5 mph - N/A   Clear
11:55 AM 69.1 °F 35.1 °F 29% 29.89 in 10.0 mi Calm Calm - N/A   Partly Cloudy
12:55 PM 71.1 °F 41.0 °F 34% 29.86 in 10.0 mi Variable 3.5 mph - N/A   Mostly Cloudy
1:55 PM 81.0 °F 35.1 °F 19% 29.82 in 10.0 mi South 19.6 mph 27.6 mph N/A   Mostly Cloudy
2:55 PM 80.1 °F 37.0 °F 21% 29.82 in 10.0 mi SSE 20.7 mph 31.1 mph N/A   Partly Cloudy
3:55 PM 80.1 °F 35.1 °F 20% 29.81 in 10.0 mi South 16.1 mph 25.3 mph N/A   Scattered Clouds
4:55 PM 79.0 °F 33.1 °F 19% 29.82 in 10.0 mi South 18.4 mph 25.3 mph N/A   Mostly Cloudy
6:55 PM 69.1 °F 41.0 °F 36% 29.87 in 10.0 mi West 9.2 mph 21.9 mph N/A   Mostly Cloudy
7:55 PM 66.9 °F 43.0 °F 42% 29.92 in 10.0 mi SW 6.9 mph - 0.00 in   Overcast
8:55 PM 63.0 °F 46.9 °F 56% 29.92 in 10.0 mi South 18.4 mph 35.7 mph 0.00 in Rain Light Rain
9:55 PM 61.0 °F 45.0 °F 56% 29.91 in 10.0 mi Calm Calm - 0.00 in   Clear
10:55 PM 57.0 °F 45.0 °F 64% 29.91 in 10.0 mi Calm Calm - N/A   Scattered Clouds
11:55 PM 53.1 °F 43.0 °F 69% 29.91 in 10.0 mi ESE 3.5 mph - N/A   Partly Cloudy